High Desert Yearling Classic - South Hills

Station: South Hills 15 Miles - T Race

Distance: 15 Miles

Release: 20-Apr-2017 11:45

Weather Release:    Arrival:

Wind at Release:     Wind at Arrival:

Temp at Release: °    Temp at Arrival: °

Lofts: 79

Birds: 290

Clocked: 253

Good Luck to Everyone!
Drops Pos Breeder Pigeon Name Color Sex Ent Arrival Speed To Win Eligible
100 Adirondack Team - NY 67354-AU16-ARPU BBPD C 2 12:14:34.00 892.897 00:09:23 Yes
102 Hammon Racing & Cig - AZ 0061-AU16-DWI BB C 1 12:14:35.00 892.394 00:09:24 Yes
103 Scott/Carol Team - UT 0294-AU16-LFER DC H 1 12:14:39.00 890.388 00:09:27 Yes
104 Frank Locante - WI 16040-AU16-FRLO BC H 2 12:14:40.00 889.888 00:09:28 Yes
106 Eagle Ridge Lofts - WY 16087-AU16-EAGL BCWF H 2 12:14:42.00 888.889 00:09:30 Lost
107 Vaccaro Heavenly Loft - ON 10154-CU16-CRPU MY ANNA MARIA MLY H 1 12:14:43.00 888.390 00:09:32 Lost
108 Gina\'s Loft - ID 55469-AU16-ARPU 88X50 BCWF C 2 12:14:45.00 887.395 00:09:33 Yes
108 Ed Kehl - UT 0302-AU16-WFA BB C 1 12:14:45.00 887.395 00:09:33 Yes
110 Scott/Carol Team - UT 0238-AU16-DWI BB C 3 12:14:51.00 884.422 00:09:40 Lost
111 Steve Beier - AZ 0827-AU16-IDA BC H 1 12:14:53.00 883.436 00:09:41 Lost
111 Scott/Carol Team - UT 0246-AU16-DWI BB C 4 12:14:53.00 883.436 00:09:41 Lost
113 Larry Kidd - WY 0009-AU16-4US BLK C 3 12:14:54.00 882.943 00:09:43 Lost
114 F & D Lofts - AB 16124-AU16-FD BC H 1 12:14:56.00 881.960 00:09:44 Yes
115 Adirondack Team - NY 28360-AU16-AA BBWF H 3 12:14:58.00 880.979 00:09:46 Lost
115 Hammon Racing & Cig - AZ 0052-AU16-DWI BC H 2 12:14:58.00 880.979 00:09:46 Lost
117 Bob Lehman - PA 0979-IF16-PGC BC H 2 12:15:04.00 878.049 00:09:52 Lost
118 Twin Loft & Joe - MD 60202-IF16-BWI Delanie Marie DCWF H 2 12:15:14.00 873.208 00:10:03 Lost
119 Hammon Racing & Dirty Birds - AZ 0062-AU16-DWI BB C 1 12:15:16.00 872.247 00:10:04 Yes
120 Donald Johnson - MA 3549-AU16-FOYS BC C 2 12:15:25.00 867.945 00:10:14 Yes
121 Hi-Cal Connection - CA 0704-AU16-HICA BB H 4 12:15:26.00 867.470 00:10:14 Lost
121 Danny Lum - HI 6767-AU16-HIC MLY C 4 12:15:26.00 867.470 00:10:14 Yes
123 Christensen & Stevens - UT 0751-AU16-DWI BB C 3 12:15:27.00 866.995 00:10:16 Lost
124 Hi-Cal Connection - CA 0705-AU16-HICA BC H 5 12:15:30.00 865.574 00:10:18 Lost
125 Hwy 51 Loft - OK 6050-AU16-NWA BB C 1 12:15:32.00 864.629 00:10:20 Yes
126 D & L Lofts - BC 16107-CU16-CU BC C 2 12:15:34.00 863.686 00:10:22 Yes
127 Larry Kidd - WY 0001-AU16-4US BB H 4 12:15:38.00 861.806 00:10:27 Lost
127 Kreager Loft - PA 42266-IF16-E BB H 2 12:15:38.00 861.806 00:10:27 Yes
129 Haack Loft - CA 3143-AU16-JEDD BC H 1 12:15:41.00 860.402 00:10:29 Yes
130 2nd Chance Loft - ID 55486-AU16-ARPU 22x43 BB C 1 12:15:53.00 854.830 00:10:42 Lost
131 Silver Dollar Loft - CO 0072-AU16-SD IND H 5 12:16:10.00 847.059 00:10:58 Yes
132 Danny Lum - HI 6784-AU16-HIC BCWF C 5 12:16:16.00 844.350 00:11:04 Yes
133 Haack Loft - CA 3172-AU16-JEDD BB C 2 12:17:19.00 816.916 00:12:07 Yes
134 Pelican Loft - ID 1529-AU16-IDA BB H 2 12:18:13.00 794.782 00:13:01 Lost
135 Heritage Loft - UT 85330-AU16-ARPU BB C 2 12:18:42.00 783.383 00:13:30 Lost
136 Hollywood Lou Loft - FL 96175-AU16-ARPU BBWF C 1 12:19:19.00 769.305 00:14:08 Lost
137 Hotrocks Loft - UT 0562-AU16-WFA BB C 1 12:19:29.00 765.587 00:14:18 Lost
138 Mario Rodriguez - AZ 5359-AU16-ARPU GRZ H 1 12:19:34.00 763.742 00:14:22 Lost
139 Mike Beam - KS 60769-AU16-TOP GRZ C 2 12:19:41.00 761.173 00:14:29 Lost
140 Hammon Racing & Dirty Birds - AZ 0384-AU16-DWI BB C 2 12:21:46.00 718.042 00:16:34 Yes
141 Peter Truong - CA 16576-AU16-ARPU BC C 3 12:21:47.00 717.716 00:16:36 Lost
141 Bob Lehman - PA 0582-IF16-PGC BC C 3 12:21:47.00 717.716 00:16:36 Lost
143 Baldwin & Tilson - NC 6371-AU16-TENT BB H 4 12:21:49.00 717.067 00:16:37 Yes
143 Ganus Family Loft - IN 0996-AU16-GFL BC C 4 12:21:49.00 717.067 00:16:37 Yes
145 Racing Pigeon Mall - WA 0647-AU16-RPM BB C 2 12:21:55.00 715.124 00:16:44 Yes
146 Dave Dudley - CO 16146-AU16-PUEB BB C 2 12:21:56.00 714.801 00:16:45 Lost
147 Racing Pigeon Mall - WA 0638-AU16-RPM DC C 3 12:21:57.00 714.479 00:16:46 Lost
147 Kreager Loft - PA 42278-IF16-E BLK C 3 12:21:57.00 714.479 00:16:46 Lost
149 Danny Lum - HI 6944-AU16-HIC BC H 6 12:21:58.00 714.157 00:16:46 Yes
150 Chen Loft - PA 0100-IF16-LU BB H 8 12:21:59.00 713.835 00:16:48 Yes
151 Mc Laughlin Lofts - MA 0545-AU16-MCLO DC H 3 12:22:09.00 710.633 00:16:57 Yes
152 Cantere-Lum - HI 8613-AU16-FSC DCPD H 3 12:22:11.00 709.996 00:16:59 Yes
153 High Plains Drifter Loft - CO 6904-AU16-NCF DCPD H 3 12:22:13.00 709.360 00:17:01 Lost
154 Ed Kehl - UT 0305-AU16-WFA SLT C 2 12:22:17.00 708.091 00:17:06 Yes
155 Richard Callahan - MO 43063-AU16-AA BB H 4 12:22:23.00 706.197 00:17:12 Yes
156 Hammon Racing & Bk - AZ 0400-AU16-DWI BB H 2 12:22:24.00 705.882 00:17:13 Yes
157 Peter Truong - CA 16569-AU16-ARPU BB C 4 12:22:27.00 704.940 00:17:15 Yes
158 Bob Lehman - PA 0597-IF16-PGC BB C 4 12:22:31.00 703.687 00:17:20 Yes
159 Twin Loft & Joe - MD 60303-IF16-BWI Judith Alice BC H 3 12:22:33.00 703.063 00:17:21 Yes
160 Stevens Family Loft Syndicate - UT 0770-AU16-DWI BB H 2 12:22:42.00 700.265 00:17:31 Lost
161 Danny Lum - HI 8612-AU16-FSC BCWF C 7 12:22:46.00 699.029 00:17:35 Lost
161 Marty Hansen - CA 36639-AU16-AA BLK C 2 12:22:46.00 699.029 00:17:35 Yes
163 Hammon Racing & Bk - AZ 0051-AU16-DWI BC H 3 12:22:51.00 697.490 00:17:40 Lost
164 Mc Laughlin Lofts - MA 0551-AU16-MCLO BC C 4 12:22:54.00 696.570 00:17:42 Yes
165 Scott/Carol Team - UT 0260-AU16-DWI BBWF H 5 12:23:01.00 694.432 00:17:50 Yes
166 Twin Loft & Joe - MD 61581-IF16-BWI Hannah BB H 4 12:23:02.00 694.128 00:17:50 Lost
167 Silvercreek Loft - ON 1849-CU16-SC BC C 2 12:23:06.00 692.913 00:17:55 Lost
168 Steve Beier - AZ 0826-AU16-IDA BB C 2 12:23:16.00 689.895 00:18:05 Lost
169 Heritage Loft - UT 85356-AU16-ARPU BB H 3 12:23:27.00 686.606 00:18:16 Yes
170 Peter Truong - CA 16578-AU16-ARPU BB H 5 12:23:44.00 681.583 00:18:33 Yes
171 Rangel/Flores/Fregos - UT 1762-AU16-WFA BC H 2 12:25:35.00 650.513 00:20:24 Lost
172 Bert Bruno - UT 0991-IF16-NWC MLY H 4 12:25:37.00 649.979 00:20:26 Yes
172 2nd Chance Loft - ID 55481-AU16-ARPU 28x97 BB H 2 12:25:37.00 649.979 00:20:26 Lost
174 Sonny Loft - IL 1417-AU16-CHI The Wrench BB C 2 12:25:39.00 649.446 00:20:28 Yes
175 Eagle Ridge Lofts - WY 16019-AU16-EAGL DCWF C 3 12:25:40.00 649.180 00:20:29 Yes
176 Rory Smith - UT 6145-AU16-CDR BB C 2 12:25:42.00 648.649 00:20:30 Lost
176 Hotrocks Loft - UT 0557-AU16-WFA BBPD H 2 12:25:42.00 648.649 00:20:30 Yes
178 Rangel/Flores/Fregos - UT 1763-AU16-WFA BC H 3 12:25:43.00 648.383 00:20:32 Lost
179 Adirondack Team - NY 28328-AU16-AA BBSP C 4 12:25:44.00 648.118 00:20:32 Yes
180 Vaccaro Heavenly Loft - ON 10140-CU16-CRPU MY CHRISTINA BB H 2 12:25:45.00 647.853 00:20:33 Yes
181 Hotrocks Loft - UT 0556-AU16-WFA BB H 3 12:25:46.00 647.588 00:20:34 Lost
182 Dave Dudley - CO 16159-AU16-PUEB BB C 3 12:25:51.00 646.267 00:20:39 Yes
183 Baldwin & Tilson - NC 6367-AU16-TENT BB C 5 12:25:52.00 646.003 00:20:41 Yes
184 Racing Pigeon Mall - WA 0646-AU16-RPM BC C 4 12:25:54.00 645.477 00:20:42 Lost
185 Scott/Carol Team - UT 0249-AU16-DWI BB H 6 12:25:56.00 644.951 00:20:45 Yes
186 Bert Bruno - UT 24636-AU16-FOYS BB C 5 12:26:02.00 643.379 00:20:51 Lost
187 Scott/Carol Team - UT 0239-AU16-DWI BB C 7 12:26:05.00 642.596 00:20:54 Yes
188 Heritage Loft - UT 87775-AU16-ARPU BB C 4 12:26:07.00 642.075 00:20:56 Lost
189 Sam Haslem - UT 0099-AU16-SAM SLT H 2 12:26:35.00 634.870 00:21:23 Yes
190 Stevens Family Loft Syndicate - UT 0757-AU16-DWI BB C 3 12:26:57.00 629.321 00:21:45 Lost
191 Haack Loft - CA 3146-AU16-JEDD BC C 3 12:27:07.00 626.830 00:21:56 Lost
192 Life Loft - WA 28276-AU16-JEDD Wouts Star BC H 3 12:27:37.00 619.476 00:22:25 Lost
193 Jolly Loft - WY 0010-AU16-JOLL RC C 1 12:27:45.00 617.544 00:22:33 Lost
194 Stella Loft - TX 48088-AU16-AA BC H 3 12:27:52.00 615.863 00:22:41 Yes
195 Jolly Loft - WY 0006-AU16-JOLL BC H 2 12:29:11.00 597.510 00:24:00 Yes
196 Eagle Ridge Lofts - WY 16038-AU16-EAGL BCWF H 4 12:33:50.00 540.614 00:28:39 Yes
197 El Dorado Lofts Canada - BC 15142-CU16-CU BB H 2 12:33:59.00 538.959 00:28:47 Lost
198 Sonny Loft - IL 1418-AU16-CHI Hot For Teacher BC H 3 12:34:09.00 537.131 00:28:58 Yes
199 Nanez Family Lofts - WI 38346-AU16-JEDD BC C 2 12:35:27.00 523.290 00:30:16 Yes
200 Gina\'s Loft - ID 55480-AU16-ARPU 56X44 BB H 3 12:35:34.00 522.083 00:30:23 Lost
201 Pelican Loft - ID 1548-AU16-IDA BB C 3 12:36:02.00 517.309 00:30:50 Yes

There are 407 bird records

Note: These Race Results are unofficial and subject to change until verified by the Race Committee and declared final.

Click for forecast!